TimeMDT,TemperatureF,Dew PointF,Humidity,Sea Level PressureIn,VisibilityMPH,Wind Direction,Wind SpeedMPH,Gust SpeedMPH,PrecipitationIn,Events,Conditions,WindDirDegrees,DateUTC
12:52 AM,64.9,62.1,90,29.71,10.0,Calm,Calm,-,0.00,,Clear,0,2013-09-09 06:52:00
1:52 AM,64.9,63.0,93,29.73,10.0,SW,3.5,-,N/A,,Clear,220,2013-09-09 07:52:00
2:52 AM,64.9,62.1,90,29.74,10.0,West,4.6,-,N/A,,Clear,260,2013-09-09 08:52:00
3:52 AM,64.9,62.1,90,29.74,10.0,North,11.5,-,0.00,Rain,Light Rain,360,2013-09-09 09:52:00
4:52 AM,64.0,60.1,87,29.77,10.0,NNW,19.6,29.9,0.01,,Partly Cloudy,340,2013-09-09 10:52:00
5:52 AM,63.0,59.0,87,29.79,10.0,North,16.1,-,N/A,,Clear,350,2013-09-09 11:52:00
6:52 AM,62.1,57.9,86,29.83,10.0,NNW,8.1,-,N/A,,Scattered Clouds,340,2013-09-09 12:52:00
7:52 AM,64.0,59.0,84,29.83,10.0,North,6.9,-,N/A,,Partly Cloudy,350,2013-09-09 13:52:00
8:52 AM,68.0,55.9,65,29.84,10.0,NNW,12.7,-,N/A,,Clear,340,2013-09-09 14:52:00
9:52 AM,70.0,55.0,59,29.85,10.0,North,11.5,-,N/A,,Clear,350,2013-09-09 15:52:00
10:52 AM,72.0,55.0,55,29.85,10.0,NNW,13.8,-,N/A,,Clear,340,2013-09-09 16:52:00
11:52 AM,72.0,53.1,51,29.85,10.0,North,15.0,-,N/A,,Clear,350,2013-09-09 17:52:00
12:52 PM,73.0,54.0,51,29.86,10.0,North,13.8,-,N/A,,Clear,360,2013-09-09 18:52:00
1:52 PM,73.9,55.0,52,29.85,10.0,NNE,9.2,-,N/A,,Clear,20,2013-09-09 19:52:00
2:52 PM,75.9,55.0,48,29.84,10.0,Variable,6.9,-,N/A,,Scattered Clouds,0,2013-09-09 20:52:00
3:52 PM,73.9,54.0,50,29.85,10.0,North,4.6,-,N/A,,Scattered Clouds,10,2013-09-09 21:52:00
4:52 PM,73.0,55.0,53,29.88,10.0,South,3.5,-,N/A,,Mostly Cloudy,170,2013-09-09 22:52:00
5:52 PM,72.0,57.9,61,29.89,10.0,West,4.6,-,N/A,,Mostly Cloudy,260,2013-09-09 23:52:00
6:22 PM,66.2,60.8,83,29.96,2.5,SSW,4.6,-,0.07,Rain,Rain,200,2013-09-10 00:22:00
6:32 PM,66.2,60.8,83,29.96,3.0,Calm,Calm,-,0.08,Rain,Rain,0,2013-09-10 00:32:00
6:52 PM,64.9,60.1,84,29.91,10.0,ESE,5.8,-,0.10,Rain,Light Rain,120,2013-09-10 00:52:00
7:52 PM,66.9,60.1,79,29.92,10.0,Calm,Calm,-,0.00,,Overcast,0,2013-09-10 01:52:00
8:52 PM,63.0,59.0,87,29.93,10.0,WNW,3.5,-,N/A,,Clear,300,2013-09-10 02:52:00
9:52 PM,63.0,59.0,87,29.93,10.0,WSW,4.6,-,N/A,,Clear,250,2013-09-10 03:52:00
10:52 PM,60.1,57.0,90,29.93,10.0,WNW,3.5,-,N/A,,Clear,300,2013-09-10 04:52:00
11:52 PM,61.0,57.9,90,29.93,10.0,West,6.9,-,N/A,,Clear,280,2013-09-10 05:52:00